Year,Month,Day,Hour,Minute,Value (Times are PST for temperature in C)
2009,06,02,00,00,17.30
2009,06,02,00,01,17.30
2009,06,02,00,02,17.30
2009,06,02,00,03,17.30
2009,06,02,00,04,17.40
2009,06,02,00,05,17.40
2009,06,02,00,06,17.40
2009,06,02,00,07,17.40
2009,06,02,00,08,17.40
2009,06,02,00,09,17.40
2009,06,02,00,10,17.40
2009,06,02,00,11,17.40
2009,06,02,00,12,17.40
2009,06,02,00,13,17.40
2009,06,02,00,14,17.40
2009,06,02,00,15,17.40
2009,06,02,00,16,17.40
2009,06,02,00,17,17.40
2009,06,02,00,18,17.40
2009,06,02,00,19,17.40
2009,06,02,00,20,17.40
2009,06,02,00,21,17.40
2009,06,02,00,22,17.40
2009,06,02,00,23,17.40
2009,06,02,00,24,17.30
2009,06,02,00,25,17.30
2009,06,02,00,26,17.30
2009,06,02,00,27,17.30
2009,06,02,00,28,17.30
2009,06,02,00,29,17.30
2009,06,02,00,30,17.30
2009,06,02,00,31,17.30
2009,06,02,00,32,17.30
2009,06,02,00,33,17.30
2009,06,02,00,34,17.30
2009,06,02,00,35,17.30
2009,06,02,00,36,17.30
2009,06,02,00,37,17.30
2009,06,02,00,38,17.30
2009,06,02,00,39,17.30
2009,06,02,00,40,17.30
2009,06,02,00,41,17.30
2009,06,02,00,42,17.30
2009,06,02,00,43,17.30
2009,06,02,00,44,17.30
2009,06,02,00,45,17.30
2009,06,02,00,46,17.30
2009,06,02,00,47,17.30
2009,06,02,00,48,17.30
2009,06,02,00,49,17.30
2009,06,02,00,50,17.30
2009,06,02,00,51,17.30
2009,06,02,00,52,17.30
2009,06,02,00,53,17.20
2009,06,02,00,54,17.20
2009,06,02,00,55,17.20
2009,06,02,00,56,17.20
2009,06,02,00,57,17.30
2009,06,02,00,58,17.30
2009,06,02,00,59,17.30
2009,06,02,01,00,17.30
2009,06,02,01,01,17.30
2009,06,02,01,02,17.30
2009,06,02,01,03,17.30
2009,06,02,01,04,17.30
2009,06,02,01,05,17.30
2009,06,02,01,06,17.30
2009,06,02,01,07,17.30
2009,06,02,01,08,17.30
2009,06,02,01,09,17.30
2009,06,02,01,10,17.30
2009,06,02,01,11,17.30
2009,06,02,01,12,17.30
2009,06,02,01,13,17.30
2009,06,02,01,14,17.30
2009,06,02,01,15,17.30
2009,06,02,01,16,17.20
2009,06,02,01,17,17.20
2009,06,02,01,18,17.20
2009,06,02,01,19,17.10
2009,06,02,01,20,17.00
2009,06,02,01,21,16.90
2009,06,02,01,22,16.90
2009,06,02,01,23,16.70
2009,06,02,01,24,16.60
2009,06,02,01,25,16.50
2009,06,02,01,26,16.40
2009,06,02,01,27,16.20
2009,06,02,01,28,16.10
2009,06,02,01,29,16.00
2009,06,02,01,30,15.90
2009,06,02,01,31,15.70
2009,06,02,01,32,15.60
2009,06,02,01,33,15.50
2009,06,02,01,34,15.40
2009,06,02,01,35,15.30
2009,06,02,01,36,15.30
2009,06,02,01,37,15.20
2009,06,02,01,38,15.10
2009,06,02,01,39,15.10
2009,06,02,01,40,15.00
2009,06,02,01,41,15.00
2009,06,02,01,42,15.00
2009,06,02,01,43,15.00
2009,06,02,01,44,15.00
2009,06,02,01,45,14.90
2009,06,02,01,46,14.90
2009,06,02,01,47,14.90
2009,06,02,01,48,15.00
2009,06,02,01,49,15.00
2009,06,02,01,50,15.00
2009,06,02,01,51,15.00
2009,06,02,01,52,15.00
2009,06,02,01,53,15.00
2009,06,02,01,54,15.00
2009,06,02,01,55,15.00
2009,06,02,01,56,15.00
2009,06,02,01,57,15.00
2009,06,02,01,58,15.00
2009,06,02,01,59,15.10
2009,06,02,02,00,15.10
2009,06,02,02,01,15.10
2009,06,02,02,02,15.10
2009,06,02,02,03,15.10
2009,06,02,02,04,15.10
2009,06,02,02,05,15.20
2009,06,02,02,06,15.20
2009,06,02,02,07,15.20
2009,06,02,02,08,15.20
2009,06,02,02,09,15.20
2009,06,02,02,10,15.20
2009,06,02,02,11,15.20
2009,06,02,02,12,15.10
2009,06,02,02,13,15.10
2009,06,02,02,14,15.10
2009,06,02,02,15,15.10
2009,06,02,02,16,15.10
2009,06,02,02,17,15.00
2009,06,02,02,18,15.00
2009,06,02,02,19,15.00
2009,06,02,02,20,14.90
2009,06,02,02,21,14.90
2009,06,02,02,22,14.90
2009,06,02,02,23,14.90
2009,06,02,02,24,14.80
2009,06,02,02,25,14.80
2009,06,02,02,26,14.80
2009,06,02,02,27,14.80
2009,06,02,02,28,14.70
2009,06,02,02,29,14.70
2009,06,02,02,30,14.60
2009,06,02,02,31,14.60
2009,06,02,02,32,14.50
2009,06,02,02,33,14.50
2009,06,02,02,34,14.40
2009,06,02,02,35,14.30
2009,06,02,02,36,14.30
2009,06,02,02,37,14.20
2009,06,02,02,38,14.20
2009,06,02,02,39,14.20
2009,06,02,02,40,14.10
2009,06,02,02,41,14.10
2009,06,02,02,42,14.00
2009,06,02,02,43,14.00
2009,06,02,02,44,13.90
2009,06,02,02,45,13.90
2009,06,02,02,46,13.90
2009,06,02,02,47,13.80
2009,06,02,02,48,13.80
2009,06,02,02,49,13.70
2009,06,02,02,50,13.70
2009,06,02,02,51,13.70
2009,06,02,02,52,13.70
2009,06,02,02,53,13.70
2009,06,02,02,54,13.70
2009,06,02,02,55,13.70
2009,06,02,02,56,13.60
2009,06,02,02,57,13.60
2009,06,02,02,58,13.60
2009,06,02,02,59,13.60
2009,06,02,03,00,13.60
2009,06,02,03,01,13.60
2009,06,02,03,02,13.60
2009,06,02,03,03,13.60
2009,06,02,03,04,13.60
2009,06,02,03,05,13.60
2009,06,02,03,06,13.60
2009,06,02,03,07,13.60
2009,06,02,03,08,13.60
2009,06,02,03,09,13.70
2009,06,02,03,10,13.70
2009,06,02,03,11,13.70
2009,06,02,03,12,13.70
2009,06,02,03,13,13.70
2009,06,02,03,14,13.70
2009,06,02,03,15,13.70
2009,06,02,03,16,13.80
2009,06,02,03,17,13.80
2009,06,02,03,18,13.90
2009,06,02,03,19,13.90
2009,06,02,03,20,14.00
2009,06,02,03,21,14.00
2009,06,02,03,22,14.10
2009,06,02,03,23,14.10
2009,06,02,03,24,14.20
2009,06,02,03,25,14.20
2009,06,02,03,26,14.20
2009,06,02,03,27,14.20
2009,06,02,03,28,14.30
2009,06,02,03,29,14.30
2009,06,02,03,30,14.40
2009,06,02,03,31,14.40
2009,06,02,03,32,14.50
2009,06,02,03,33,14.50
2009,06,02,03,34,14.60
2009,06,02,03,35,14.60
2009,06,02,03,36,14.60
2009,06,02,03,37,14.60
2009,06,02,03,38,14.70
2009,06,02,03,39,14.70
2009,06,02,03,40,14.70
2009,06,02,03,41,14.70
2009,06,02,03,42,14.80
2009,06,02,03,43,14.80
2009,06,02,03,44,14.80
2009,06,02,03,45,14.80
2009,06,02,03,46,14.90
2009,06,02,03,47,15.00
2009,06,02,03,48,15.00
2009,06,02,03,49,15.10
2009,06,02,03,50,15.10
2009,06,02,03,51,15.20
2009,06,02,03,52,15.20
2009,06,02,03,53,15.30
2009,06,02,03,54,15.30
2009,06,02,03,55,15.30
2009,06,02,03,56,15.30
2009,06,02,03,57,15.30
2009,06,02,03,58,15.30
2009,06,02,03,59,15.30
2009,06,02,04,00,15.30
2009,06,02,04,01,15.40
2009,06,02,04,02,15.50
2009,06,02,04,03,15.50
2009,06,02,04,04,15.60
2009,06,02,04,05,15.60
2009,06,02,04,06,15.70
2009,06,02,04,07,15.80
2009,06,02,04,08,15.80
2009,06,02,04,09,15.80
2009,06,02,04,10,15.80
2009,06,02,04,11,15.90
2009,06,02,04,12,15.90
2009,06,02,04,13,15.90
2009,06,02,04,14,15.90
2009,06,02,04,15,15.90
2009,06,02,04,16,15.90
2009,06,02,04,17,15.80
2009,06,02,04,18,15.80
2009,06,02,04,19,15.80
2009,06,02,04,20,15.70
2009,06,02,04,21,15.70
2009,06,02,04,22,15.60
2009,06,02,04,23,15.50
2009,06,02,04,24,15.50
2009,06,02,04,25,15.40
2009,06,02,04,26,15.30
2009,06,02,04,27,15.30
2009,06,02,04,28,15.20
2009,06,02,04,29,15.10
2009,06,02,04,30,15.10
2009,06,02,04,31,15.10
2009,06,02,04,32,15.00
2009,06,02,04,33,15.00
2009,06,02,04,34,15.00
2009,06,02,04,35,15.00
2009,06,02,04,36,14.90
2009,06,02,04,37,14.90
2009,06,02,04,38,14.90
2009,06,02,04,39,14.80
2009,06,02,04,40,14.80
2009,06,02,04,41,14.80
2009,06,02,04,42,14.80
2009,06,02,04,43,14.80
2009,06,02,04,44,14.70
2009,06,02,04,45,14.70
2009,06,02,04,46,14.70
2009,06,02,04,47,14.70
2009,06,02,04,48,14.70
2009,06,02,04,49,14.70
2009,06,02,04,50,14.60
2009,06,02,04,51,14.60
2009,06,02,04,52,14.60
2009,06,02,04,53,14.60
2009,06,02,04,54,14.60
2009,06,02,04,55,14.60
2009,06,02,04,56,14.60
2009,06,02,04,57,14.60
2009,06,02,04,58,14.60
2009,06,02,04,59,14.60
2009,06,02,05,00,14.60
2009,06,02,05,01,14.60
2009,06,02,05,02,14.60
2009,06,02,05,03,14.60
2009,06,02,05,04,14.70
2009,06,02,05,05,14.70
2009,06,02,05,06,14.80
2009,06,02,05,07,14.90
2009,06,02,05,08,15.00
2009,06,02,05,09,15.10
2009,06,02,05,10,15.20
2009,06,02,05,11,15.30
2009,06,02,05,12,15.40
2009,06,02,05,13,15.50
2009,06,02,05,14,15.60
2009,06,02,05,15,15.60
2009,06,02,05,16,15.70
2009,06,02,05,17,15.80
2009,06,02,05,18,15.80
2009,06,02,05,19,15.90
2009,06,02,05,20,16.00
2009,06,02,05,21,16.10
2009,06,02,05,22,16.10
2009,06,02,05,23,16.10
2009,06,02,05,24,16.10
2009,06,02,05,25,16.20
2009,06,02,05,26,16.20
2009,06,02,05,27,16.20
2009,06,02,05,28,16.20
2009,06,02,05,29,16.20
2009,06,02,05,30,16.20
2009,06,02,05,31,16.30
2009,06,02,05,32,16.30
2009,06,02,05,33,16.30
2009,06,02,05,34,16.30
2009,06,02,05,35,16.30
2009,06,02,05,36,16.30
2009,06,02,05,37,16.30
2009,06,02,05,38,16.30
2009,06,02,05,39,16.30
2009,06,02,05,40,16.40
2009,06,02,05,41,16.40
2009,06,02,05,42,16.40
2009,06,02,05,43,16.40
2009,06,02,05,44,16.40
2009,06,02,05,45,16.40
2009,06,02,05,46,16.40
2009,06,02,05,47,16.60
2009,06,02,05,48,16.60
2009,06,02,05,49,16.60
2009,06,02,05,50,16.70
2009,06,02,05,51,16.70
2009,06,02,05,52,16.70
2009,06,02,05,53,16.70
2009,06,02,05,54,16.70
2009,06,02,05,55,16.70
2009,06,02,05,56,16.70
2009,06,02,05,57,16.70
2009,06,02,05,58,16.70
2009,06,02,05,59,16.80
2009,06,02,06,00,16.80
2009,06,02,06,01,16.80
2009,06,02,06,02,16.80
2009,06,02,06,03,16.80
2009,06,02,06,04,16.80
2009,06,02,06,05,16.80
2009,06,02,06,06,16.80
2009,06,02,06,07,16.80
2009,06,02,06,08,16.80
2009,06,02,06,09,16.80
2009,06,02,06,10,16.80
2009,06,02,06,11,16.80
2009,06,02,06,12,16.80
2009,06,02,06,13,16.80
2009,06,02,06,14,16.80
2009,06,02,06,15,16.90
2009,06,02,06,16,16.90
2009,06,02,06,17,16.90
2009,06,02,06,18,17.00
2009,06,02,06,19,17.00
2009,06,02,06,20,17.00
2009,06,02,06,21,17.00
2009,06,02,06,22,17.00
2009,06,02,06,23,17.00
2009,06,02,06,24,17.10
2009,06,02,06,25,17.10
2009,06,02,06,26,17.10
2009,06,02,06,27,17.10
2009,06,02,06,28,17.10
2009,06,02,06,29,17.10
2009,06,02,06,30,17.10
2009,06,02,06,31,17.20
2009,06,02,06,32,17.20
2009,06,02,06,33,17.30
2009,06,02,06,34,17.30
2009,06,02,06,35,17.30
2009,06,02,06,36,17.40
2009,06,02,06,37,17.40
2009,06,02,06,38,17.50
2009,06,02,06,39,17.50
2009,06,02,06,40,17.60
2009,06,02,06,41,17.60
2009,06,02,06,42,17.60
2009,06,02,06,43,17.60
2009,06,02,06,44,17.60
2009,06,02,06,45,17.60
2009,06,02,06,46,17.60
2009,06,02,06,47,17.60
2009,06,02,06,48,17.60
2009,06,02,06,49,17.60
2009,06,02,06,50,17.60
2009,06,02,06,51,17.60
2009,06,02,06,52,17.60
2009,06,02,06,53,17.60
2009,06,02,06,54,17.60
2009,06,02,06,55,17.50
2009,06,02,06,56,17.50
2009,06,02,06,57,17.50
2009,06,02,06,58,17.50
2009,06,02,06,59,17.40
2009,06,02,07,00,17.40
2009,06,02,07,01,17.40
2009,06,02,07,02,17.30
2009,06,02,07,03,17.30
2009,06,02,07,04,17.30
2009,06,02,07,05,17.30
2009,06,02,07,06,17.30
2009,06,02,07,07,17.20
2009,06,02,07,08,17.20
2009,06,02,07,09,17.10
2009,06,02,07,10,17.10
2009,06,02,07,11,17.00
2009,06,02,07,12,17.00
2009,06,02,07,13,17.00
2009,06,02,07,14,17.00
2009,06,02,07,15,16.90
2009,06,02,07,16,16.90
2009,06,02,07,17,16.90
2009,06,02,07,18,16.90
2009,06,02,07,19,16.90
2009,06,02,07,20,16.90
2009,06,02,07,21,16.90
2009,06,02,07,22,16.90
2009,06,02,07,23,16.90
2009,06,02,07,24,16.90
2009,06,02,07,25,17.00
2009,06,02,07,26,17.00
2009,06,02,07,27,17.00
2009,06,02,07,28,17.10
2009,06,02,07,29,17.20
2009,06,02,07,30,17.30
2009,06,02,07,31,17.30
2009,06,02,07,32,17.30
2009,06,02,07,33,17.30
2009,06,02,07,34,17.40
2009,06,02,07,35,17.40
2009,06,02,07,36,17.40
2009,06,02,07,37,17.40
2009,06,02,07,38,17.40
2009,06,02,07,39,17.50
2009,06,02,07,40,17.50
2009,06,02,07,41,17.60
2009,06,02,07,42,17.60
2009,06,02,07,43,17.60
2009,06,02,07,44,17.60
2009,06,02,07,45,17.60
2009,06,02,07,46,17.70
2009,06,02,07,47,17.70
2009,06,02,07,48,17.80
2009,06,02,07,49,17.80
2009,06,02,07,50,17.80
2009,06,02,07,51,17.80
2009,06,02,07,52,17.90
2009,06,02,07,53,17.90
2009,06,02,07,54,17.90
2009,06,02,07,55,17.90
2009,06,02,07,56,17.90
2009,06,02,07,57,17.90
2009,06,02,07,58,18.00
2009,06,02,07,59,18.10
2009,06,02,08,00,18.20
2009,06,02,08,01,18.20
2009,06,02,08,02,18.20
2009,06,02,08,03,18.30
2009,06,02,08,04,18.40
2009,06,02,08,05,18.40
2009,06,02,08,06,18.40
2009,06,02,08,07,18.50
2009,06,02,08,08,18.50
2009,06,02,08,09,18.50
2009,06,02,08,10,18.50
2009,06,02,08,11,18.60
2009,06,02,08,12,18.60
2009,06,02,08,13,18.60
2009,06,02,08,14,18.70
2009,06,02,08,15,18.70
2009,06,02,08,16,18.70
2009,06,02,08,17,18.70
2009,06,02,08,18,18.80
2009,06,02,08,19,18.80
2009,06,02,08,20,18.80
2009,06,02,08,21,18.80
2009,06,02,08,22,18.90
2009,06,02,08,23,18.90
2009,06,02,08,24,18.90
2009,06,02,08,25,19.00
2009,06,02,08,26,19.10
2009,06,02,08,27,19.10
2009,06,02,08,28,19.10
2009,06,02,08,29,19.10
2009,06,02,08,30,19.20
2009,06,02,08,31,19.30
2009,06,02,08,32,19.40
2009,06,02,08,33,19.40
2009,06,02,08,34,19.50
2009,06,02,08,35,19.60
2009,06,02,08,36,19.60
2009,06,02,08,37,19.70
2009,06,02,08,38,19.80
2009,06,02,08,39,19.80
2009,06,02,08,40,19.90
2009,06,02,08,41,19.90
2009,06,02,08,42,19.90
2009,06,02,08,43,19.90
2009,06,02,08,44,20.00
2009,06,02,08,45,20.10
2009,06,02,08,46,20.10
2009,06,02,08,47,20.10
2009,06,02,08,48,20.20
2009,06,02,08,49,20.20
2009,06,02,08,50,20.20
2009,06,02,08,51,20.20
2009,06,02,08,52,20.20
2009,06,02,08,53,20.20
2009,06,02,08,54,20.30
2009,06,02,08,55,20.30
2009,06,02,08,56,20.30
2009,06,02,08,57,20.40
2009,06,02,08,58,20.40
2009,06,02,08,59,20.40
2009,06,02,09,00,20.50
2009,06,02,09,01,20.50
2009,06,02,09,02,20.60
2009,06,02,09,03,20.60
2009,06,02,09,04,20.70
2009,06,02,09,05,20.70
2009,06,02,09,06,20.70
2009,06,02,09,07,20.80
2009,06,02,09,08,20.80
2009,06,02,09,09,20.90
2009,06,02,09,10,21.00
2009,06,02,09,11,21.10
2009,06,02,09,12,21.10
2009,06,02,09,13,21.20
2009,06,02,09,14,21.30
2009,06,02,09,15,21.30
2009,06,02,09,16,21.40
2009,06,02,09,17,21.40
2009,06,02,09,18,21.60
2009,06,02,09,19,21.60
2009,06,02,09,20,21.60
2009,06,02,09,21,21.60
2009,06,02,09,22,21.70
2009,06,02,09,23,21.70
2009,06,02,09,24,21.80
2009,06,02,09,25,21.90
2009,06,02,09,26,22.00
2009,06,02,09,27,22.10
2009,06,02,09,28,22.10
2009,06,02,09,29,22.20
2009,06,02,09,30,22.20
2009,06,02,09,31,22.30
2009,06,02,09,32,22.40
2009,06,02,09,33,22.50
2009,06,02,09,34,22.50
2009,06,02,09,35,22.60
2009,06,02,09,36,22.70
2009,06,02,09,37,22.70
2009,06,02,09,38,22.70
2009,06,02,09,39,22.70
2009,06,02,09,40,22.70
2009,06,02,09,41,22.70
2009,06,02,09,42,22.80
2009,06,02,09,43,22.80
2009,06,02,09,44,22.80
2009,06,02,09,45,22.90
2009,06,02,09,46,22.90
2009,06,02,09,47,22.90
2009,06,02,09,48,22.90
2009,06,02,09,49,22.90
2009,06,02,09,50,22.90
2009,06,02,09,51,22.90
2009,06,02,09,52,22.90
2009,06,02,09,53,22.80
2009,06,02,09,54,22.80
2009,06,02,09,55,22.80
2009,06,02,09,56,22.90
2009,06,02,09,57,22.90
2009,06,02,09,58,22.90
2009,06,02,09,59,23.00
2009,06,02,10,00,23.10
2009,06,02,10,01,23.10
2009,06,02,10,02,23.20
2009,06,02,10,03,23.20
2009,06,02,10,04,23.30
2009,06,02,10,05,23.30
2009,06,02,10,06,23.30
2009,06,02,10,07,23.30
2009,06,02,10,08,23.30
2009,06,02,10,09,23.30
2009,06,02,10,10,23.30
2009,06,02,10,11,23.30
2009,06,02,10,12,23.30
2009,06,02,10,13,23.30
2009,06,02,10,14,23.30
2009,06,02,10,15,23.30
2009,06,02,10,16,23.30
2009,06,02,10,17,23.30
2009,06,02,10,18,23.30
2009,06,02,10,19,23.30
2009,06,02,10,20,23.30
2009,06,02,10,21,23.30
2009,06,02,10,22,23.30
2009,06,02,10,23,23.30
2009,06,02,10,24,23.30
2009,06,02,10,25,23.30
2009,06,02,10,26,23.30
2009,06,02,10,27,23.30
2009,06,02,10,28,23.20
2009,06,02,10,29,23.20
2009,06,02,10,30,23.20
2009,06,02,10,31,23.30
2009,06,02,10,32,23.30
2009,06,02,10,33,23.30
2009,06,02,10,34,23.30
2009,06,02,10,35,23.30
2009,06,02,10,36,23.40
2009,06,02,10,37,23.40
2009,06,02,10,38,23.40
2009,06,02,10,39,23.50
2009,06,02,10,40,23.60
2009,06,02,10,41,23.60
2009,06,02,10,42,23.60
2009,06,02,10,43,23.60
2009,06,02,10,44,23.60
2009,06,02,10,45,23.40
2009,06,02,10,46,23.50
2009,06,02,10,47,23.60
2009,06,02,10,48,23.60
2009,06,02,10,49,23.60
2009,06,02,10,50,23.50
2009,06,02,10,51,23.40
2009,06,02,10,52,23.40
2009,06,02,10,53,23.30
2009,06,02,10,54,23.30
2009,06,02,10,55,23.30
2009,06,02,10,56,23.50
2009,06,02,10,57,23.60
2009,06,02,10,58,23.70
2009,06,02,10,59,23.70
2009,06,02,11,00,23.70
2009,06,02,11,01,23.80
2009,06,02,11,02,23.90
2009,06,02,11,03,24.00
2009,06,02,11,04,24.10
2009,06,02,11,05,24.10
2009,06,02,11,06,24.20
2009,06,02,11,07,24.20
2009,06,02,11,08,24.20
2009,06,02,11,09,24.20
2009,06,02,11,10,24.20
2009,06,02,11,11,24.20
2009,06,02,11,12,24.20
2009,06,02,11,13,24.20
2009,06,02,11,14,24.20
2009,06,02,11,15,24.30
2009,06,02,11,16,24.30
2009,06,02,11,17,24.30
2009,06,02,11,18,24.30
2009,06,02,11,19,24.30
2009,06,02,11,20,24.30
2009,06,02,11,21,24.40
2009,06,02,11,22,24.40
2009,06,02,11,23,24.40
2009,06,02,11,24,24.40
2009,06,02,11,25,24.50
2009,06,02,11,26,24.50
2009,06,02,11,27,24.60
2009,06,02,11,28,24.70
2009,06,02,11,29,24.80
2009,06,02,11,30,24.80
2009,06,02,11,31,24.90
2009,06,02,11,32,24.90
2009,06,02,11,33,24.90
2009,06,02,11,34,24.90
2009,06,02,11,35,24.90
2009,06,02,11,36,25.00
2009,06,02,11,37,25.00
2009,06,02,11,38,25.00
2009,06,02,11,39,25.10
2009,06,02,11,40,25.20
2009,06,02,11,41,25.20
2009,06,02,11,42,25.30
2009,06,02,11,43,25.30
2009,06,02,11,44,25.40
2009,06,02,11,45,25.40
2009,06,02,11,46,25.50
2009,06,02,11,47,25.60
2009,06,02,11,48,25.60
2009,06,02,11,49,25.60
2009,06,02,11,50,25.60
2009,06,02,11,51,25.60
2009,06,02,11,52,25.60
2009,06,02,11,53,25.50
2009,06,02,11,54,25.50
2009,06,02,11,55,25.40
2009,06,02,11,56,25.40
2009,06,02,11,57,25.30
2009,06,02,11,58,25.30
2009,06,02,11,59,25.30
2009,06,02,12,00,25.30
2009,06,02,12,01,25.30
2009,06,02,12,02,25.30
2009,06,02,12,03,25.30
2009,06,02,12,04,25.30
2009,06,02,12,05,25.30
2009,06,02,12,06,25.30
2009,06,02,12,07,25.40
2009,06,02,12,08,25.40
2009,06,02,12,09,25.50
2009,06,02,12,10,25.50
2009,06,02,12,11,25.60
2009,06,02,12,12,25.60
2009,06,02,12,13,25.70
2009,06,02,12,14,25.80
2009,06,02,12,15,25.90
2009,06,02,12,16,25.90
2009,06,02,12,17,26.00
2009,06,02,12,18,26.10
2009,06,02,12,19,26.20
2009,06,02,12,20,26.30
2009,06,02,12,21,26.40
2009,06,02,12,22,26.50
2009,06,02,12,23,26.60
2009,06,02,12,24,26.60
2009,06,02,12,25,26.60
2009,06,02,12,26,26.60
2009,06,02,12,27,26.60
2009,06,02,12,28,26.60
2009,06,02,12,29,26.60
2009,06,02,12,30,26.60
2009,06,02,12,31,26.60
2009,06,02,12,32,26.60
2009,06,02,12,33,26.50
2009,06,02,12,34,26.40
2009,06,02,12,35,26.40
2009,06,02,12,36,26.40
2009,06,02,12,37,26.30
2009,06,02,12,38,26.20
2009,06,02,12,39,26.30
2009,06,02,12,40,26.30
2009,06,02,12,41,26.30
2009,06,02,12,42,26.30
2009,06,02,12,43,26.10
2009,06,02,12,44,26.10
2009,06,02,12,45,26.10
2009,06,02,12,46,26.20
2009,06,02,12,47,26.20
2009,06,02,12,48,26.30
2009,06,02,12,49,26.40
2009,06,02,12,50,26.60
2009,06,02,12,51,26.60
2009,06,02,12,52,26.70
2009,06,02,12,53,26.70
2009,06,02,12,54,26.60
2009,06,02,12,55,26.60
2009,06,02,12,56,26.70
2009,06,02,12,57,26.70
2009,06,02,12,58,26.80
2009,06,02,12,59,26.80
2009,06,02,13,00,26.90
2009,06,02,13,01,27.00
2009,06,02,13,02,27.10
2009,06,02,13,03,27.20
2009,06,02,13,04,27.20
2009,06,02,13,05,27.10
2009,06,02,13,06,27.00
2009,06,02,13,07,26.80
2009,06,02,13,08,26.80
2009,06,02,13,09,26.80
2009,06,02,13,10,26.80
2009,06,02,13,11,26.80
2009,06,02,13,12,26.70
2009,06,02,13,13,26.70
2009,06,02,13,14,26.80
2009,06,02,13,15,26.80
2009,06,02,13,16,26.90
2009,06,02,13,17,26.90
2009,06,02,13,18,27.10
2009,06,02,13,19,27.10
2009,06,02,13,20,27.10
2009,06,02,13,21,27.10
2009,06,02,13,22,27.00
2009,06,02,13,23,26.90
2009,06,02,13,24,26.80
2009,06,02,13,25,26.80
2009,06,02,13,26,26.80
2009,06,02,13,27,26.80
2009,06,02,13,28,26.90
2009,06,02,13,29,26.90
2009,06,02,13,30,27.10
2009,06,02,13,31,27.10
2009,06,02,13,32,27.10
2009,06,02,13,33,27.20
2009,06,02,13,34,27.30
2009,06,02,13,35,27.30
2009,06,02,13,36,27.30
2009,06,02,13,37,27.20
2009,06,02,13,38,27.20
2009,06,02,13,39,27.30
2009,06,02,13,40,27.30
2009,06,02,13,41,27.30
2009,06,02,13,42,27.30
2009,06,02,13,43,27.30
2009,06,02,13,44,27.30
2009,06,02,13,45,27.30
2009,06,02,13,46,27.40
2009,06,02,13,47,27.60
2009,06,02,13,48,27.60
2009,06,02,13,49,27.50
2009,06,02,13,50,27.40
2009,06,02,13,51,27.40
2009,06,02,13,52,27.40
2009,06,02,13,53,27.50
2009,06,02,13,54,27.60
2009,06,02,13,55,27.60
2009,06,02,13,56,27.60
2009,06,02,13,57,27.60
2009,06,02,13,58,27.60
2009,06,02,13,59,27.70
2009,06,02,14,00,27.70
2009,06,02,14,01,27.80
2009,06,02,14,02,27.90
2009,06,02,14,03,28.00
2009,06,02,14,04,28.00
2009,06,02,14,05,28.10
2009,06,02,14,06,28.20
2009,06,02,14,07,28.40
2009,06,02,14,08,28.50
2009,06,02,14,09,28.60
2009,06,02,14,10,28.70
2009,06,02,14,11,28.70
2009,06,02,14,12,28.80
2009,06,02,14,13,28.90
2009,06,02,14,14,28.90
2009,06,02,14,15,28.70
2009,06,02,14,16,28.70
2009,06,02,14,17,28.70
2009,06,02,14,18,28.60
2009,06,02,14,19,28.60
2009,06,02,14,20,28.60
2009,06,02,14,21,28.60
2009,06,02,14,22,28.60
2009,06,02,14,23,28.60
2009,06,02,14,24,28.70
2009,06,02,14,25,28.80
2009,06,02,14,26,28.80
2009,06,02,14,27,28.90
2009,06,02,14,28,28.80
2009,06,02,14,29,28.80
2009,06,02,14,30,28.80
2009,06,02,14,31,28.80
2009,06,02,14,32,28.80
2009,06,02,14,33,28.80
2009,06,02,14,34,28.80
2009,06,02,14,35,28.80
2009,06,02,14,36,28.80
2009,06,02,14,37,28.80
2009,06,02,14,38,28.80
2009,06,02,14,39,28.90
2009,06,02,14,40,28.90
2009,06,02,14,41,28.90
2009,06,02,14,42,29.00
2009,06,02,14,43,29.10
2009,06,02,14,44,29.20
2009,06,02,14,45,29.20
2009,06,02,14,46,29.30
2009,06,02,14,47,29.30
2009,06,02,14,48,29.40
2009,06,02,14,49,29.30
2009,06,02,14,50,29.30
2009,06,02,14,51,29.20
2009,06,02,14,52,29.20
2009,06,02,14,53,29.20
2009,06,02,14,54,29.20
2009,06,02,14,55,29.20
2009,06,02,14,56,29.30
2009,06,02,14,57,29.30
2009,06,02,14,58,29.40
2009,06,02,14,59,29.40
2009,06,02,15,00,29.40
2009,06,02,15,01,29.40
2009,06,02,15,02,29.40
2009,06,02,15,03,29.40
2009,06,02,15,04,29.40
2009,06,02,15,05,29.40
2009,06,02,15,06,29.40
2009,06,02,15,07,29.40
2009,06,02,15,08,29.50
2009,06,02,15,09,29.50
2009,06,02,15,10,29.60
2009,06,02,15,11,29.60
2009,06,02,15,12,29.50
2009,06,02,15,13,29.50
2009,06,02,15,14,29.40
2009,06,02,15,15,29.40
2009,06,02,15,16,29.40
2009,06,02,15,17,29.40
2009,06,02,15,18,29.40
2009,06,02,15,19,29.40
2009,06,02,15,20,29.40
2009,06,02,15,21,29.30
2009,06,02,15,22,29.30
2009,06,02,15,23,29.30
2009,06,02,15,24,29.30
2009,06,02,15,25,29.30
2009,06,02,15,26,29.30
2009,06,02,15,27,29.30
2009,06,02,15,28,29.30
2009,06,02,15,29,29.40
2009,06,02,15,30,29.40
2009,06,02,15,31,29.40
2009,06,02,15,32,29.40
2009,06,02,15,33,29.40
2009,06,02,15,34,29.30
2009,06,02,15,35,29.30
2009,06,02,15,36,29.30
2009,06,02,15,37,29.30
2009,06,02,15,38,29.30
2009,06,02,15,39,29.20
2009,06,02,15,40,29.10
2009,06,02,15,41,29.10
2009,06,02,15,42,29.00
2009,06,02,15,43,28.90
2009,06,02,15,44,28.90
2009,06,02,15,45,28.80
2009,06,02,15,46,28.80
2009,06,02,15,47,28.70
2009,06,02,15,48,28.70
2009,06,02,15,49,28.70
2009,06,02,15,50,28.60
2009,06,02,15,51,28.60
2009,06,02,15,52,28.50
2009,06,02,15,53,28.40
2009,06,02,15,54,28.40
2009,06,02,15,55,28.40
2009,06,02,15,56,28.40
2009,06,02,15,57,28.40
2009,06,02,15,58,28.40
2009,06,02,15,59,28.40
2009,06,02,16,00,28.50
2009,06,02,16,01,28.60
2009,06,02,16,02,28.70
2009,06,02,16,03,28.80
2009,06,02,16,04,28.80
2009,06,02,16,05,28.90
2009,06,02,16,06,28.90
2009,06,02,16,07,29.00
2009,06,02,16,08,29.10
2009,06,02,16,09,29.10
2009,06,02,16,10,29.10
2009,06,02,16,11,29.10
2009,06,02,16,12,29.10
2009,06,02,16,13,29.10
2009,06,02,16,14,29.00
2009,06,02,16,15,28.90
2009,06,02,16,16,28.90
2009,06,02,16,17,28.90
2009,06,02,16,18,28.90
2009,06,02,16,19,28.90
2009,06,02,16,20,28.80
2009,06,02,16,21,28.70
2009,06,02,16,22,28.70
2009,06,02,16,23,28.60
2009,06,02,16,24,28.60
2009,06,02,16,25,28.60
2009,06,02,16,26,28.50
2009,06,02,16,27,28.40
2009,06,02,16,28,28.40
2009,06,02,16,29,28.30
2009,06,02,16,30,28.30
2009,06,02,16,31,28.30
2009,06,02,16,32,28.30
2009,06,02,16,33,28.20
2009,06,02,16,34,28.20
2009,06,02,16,35,28.20
2009,06,02,16,36,28.10
2009,06,02,16,37,28.00
2009,06,02,16,38,28.00
2009,06,02,16,39,28.00
2009,06,02,16,40,28.00
2009,06,02,16,41,28.00
2009,06,02,16,42,27.90
2009,06,02,16,43,27.80
2009,06,02,16,44,27.80
2009,06,02,16,45,27.70
2009,06,02,16,46,27.70
2009,06,02,16,47,27.70
2009,06,02,16,48,27.70
2009,06,02,16,49,27.70
2009,06,02,16,50,27.70
2009,06,02,16,51,27.70
2009,06,02,16,52,27.70
2009,06,02,16,53,27.70
2009,06,02,16,54,27.70
2009,06,02,16,55,27.70
2009,06,02,16,56,27.70
2009,06,02,16,57,27.60
2009,06,02,16,58,27.60
2009,06,02,16,59,27.60
2009,06,02,17,00,27.50
2009,06,02,17,01,27.40
2009,06,02,17,02,27.40
2009,06,02,17,03,27.40
2009,06,02,17,04,27.40
2009,06,02,17,05,27.40
2009,06,02,17,06,27.40
2009,06,02,17,07,27.40
2009,06,02,17,08,27.40
2009,06,02,17,09,27.40
2009,06,02,17,10,27.40
2009,06,02,17,11,27.40
2009,06,02,17,12,27.40
2009,06,02,17,13,27.40
2009,06,02,17,14,27.40
2009,06,02,17,15,27.40
2009,06,02,17,16,27.40
2009,06,02,17,17,27.40
2009,06,02,17,18,27.40
2009,06,02,17,19,27.40